Location: Champs
(48.8539°N, 2.6040°E)
Time: 01:29:15
(UTC+00:00)

USA 308 - Pass Details

Date: 01 June 2022
Orbit: 549 x 558 km, 54.0° (Epoch: 14 June)

Event Time Altitude Azimuth Distance (km) Brightness Sun altitude
Exits shadow 22:32:27 19° 217° (SW) 1,341 4.5 -17.0°
Maximum altitude 22:35:13 56° 145° (SE) 667 2.8 -17.2°
Drops below altitude 10° 22:39:19 10° 67° (ENE) 1,845 5.6 -17.4°
Sets 22:41:36 0° 63° (ENE) 2,745 6.5 -17.5°
